Location: Ch?enovice
(49.7164°N, 15.2160°E)
Time: 12:56:31
(UTC+00:00)

USA 267 - Pass Details

Date: 09 November 2025
Orbit: 1100 x 1108 km, 123.0° (Epoch: 21 November)

Event Time Altitude Azimuth Distance (km) Brightness Sun altitude
Rises 04:09:57 0° 61° (ENE) 3,924 7.1 -18.1°
Reaches altitude 10° 04:12:27 10° 58° (ENE) 2,964 6.3 -17.7°
Maximum altitude 04:18:53 62° 340° (NNW) 1,234 3.4 -16.7°
Enters shadow 04:23:10 22° 267° (W) 2,186 4.2 -16.0°
